| time (UTC) | temp C | wind direction | speed KPH | gust KPH | rain 1hr cm | rain 24hr cm | rain mn cm | humidity % | barometer mb |
| 20260504050421 | 15 | 347 | 0.0 | 8.0 | 0.00 | 0.00 | 0.00 | 66 | 1004.9 |
| 20260504045918 | 15 | 1 | 0.0 | 4.8 | 0.00 | 0.00 | 0.00 | 66 | 1004.7 |
| 20260504045413 | 15 | 350 | 3.2 | 4.8 | 0.00 | 0.00 | 0.00 | 67 | 1004.8 |
| 20260504044910 | 15 | 6 | 0.0 | 3.2 | 0.00 | 0.00 | 0.00 | 66 | 1004.6 |
| 20260504044408 | 14 | 25 | 0.0 | 8.0 | 0.00 | 0.00 | 0.00 | 67 | 1004.8 |
| 20260504043905 | 14 | 343 | 0.0 | 0.0 | 0.00 | 0.00 | 0.00 | 67 | 1004.7 |
| 20260504043401 | 14 | 331 | 0.0 | 4.8 | 0.00 | 0.00 | 0.00 | 68 | 1004.6 |
| 20260504042859 | 14 | 298 | 1.6 | 3.2 | 0.00 | 0.00 | 0.00 | 67 | 1004.6 |
| 20260504042355 | 14 | 354 | 1.6 | 8.0 | 0.00 | 0.00 | 0.00 | 67 | 1004.9 |
| 20260504041852 | 14 | 318 | 0.0 | 3.2 | 0.00 | 0.00 | 0.00 | 68 | 1004.8 |
| 20260504041348 | 14 | 353 | 0.0 | 11.3 | 0.00 | 0.00 | 0.00 | 67 | 1004.8 |
| 20260504040844 | 15 | 339 | 0.0 | 3.2 | 0.00 | 0.00 | 0.00 | 67 | 1004.6 |
| 20260504040342 | 15 | 350 | 0.0 | 3.2 | 0.00 | 0.00 | 0.00 | 66 | 1004.8 |
| 20260504035837 | 15 | 325 | 0.0 | 0.0 | 0.00 | 0.00 | 0.00 | 67 | 1004.9 |
| 20260504035336 | 15 | 311 | 1.6 | 4.8 | 0.00 | 0.00 | 0.00 | 67 | 1004.8 |
| 20260504034832 | 15 | 25 | 0.0 | 3.2 | 0.00 | 0.00 | 0.00 | 65 | 1004.8 |
| 20260504034330 | 15 | 60 | 0.0 | 3.2 | 0.00 | 0.00 | 0.00 | 65 | 1005.0 |
| 20260504033826 | 15 | 261 | 0.0 | 3.2 | 0.00 | 0.00 | 0.00 | 64 | 1005.4 |
| 20260504033325 | 15 | 15 | 0.0 | 0.0 | 0.00 | 0.00 | 0.00 | 64 | 1005.1 |
| 20260504032821 | 15 | 331 | 0.0 | 4.8 | 0.00 | 0.00 | 0.00 | 65 | 1005.2 |
| 20260504032318 | 15 | 307 | 1.6 | 4.8 | 0.00 | 0.00 | 0.00 | 65 | 1005.2 |
| 20260504031815 | 15 | 299 | 1.6 | 4.8 | 0.00 | 0.00 | 0.00 | 65 | 1005.1 |
| 20260504031312 | 15 | 323 | 1.6 | 3.2 | 0.00 | 0.00 | 0.00 | 65 | 1005.5 |
| 20260504030808 | 15 | 287 | 1.6 | 4.8 | 0.00 | 0.00 | 0.00 | 64 | 1005.4 |
| 20260504030306 | 15 | 327 | 0.0 | 3.2 | 0.00 | 0.00 | 0.00 | 63 | 1005.4 |
| 20260504025801 | 15 | 354 | 0.0 | 3.2 | 0.00 | 0.00 | 0.00 | 64 | 1005.2 |
| 20260504025259 | 15 | 292 | 0.0 | 4.8 | 0.00 | 0.00 | 0.00 | 64 | 1005.5 |
| 20260504024755 | 15 | 6 | 1.6 | 4.8 | 0.00 | 0.00 | 0.00 | 63 | 1005.1 |
| 20260504024252 | 15 | 19 | 0.0 | 0.0 | 0.00 | 0.00 | 0.00 | 64 | 1005.5 |
| 20260504023749 | 15 | 272 | 0.0 | 4.8 | 0.00 | 0.00 | 0.00 | 64 | 1005.4 |
| 20260504023245 | 15 | 0 | 1.6 | 3.2 | 0.00 | 0.00 | 0.00 | 63 | 1005.4 |
| 20260504022741 | 15 | 290 | 0.0 | 3.2 | 0.00 | 0.00 | 0.00 | 62 | 1005.2 |
| 20260504022238 | 15 | 269 | 0.0 | 3.2 | 0.00 | 0.00 | 0.00 | 64 | 1005.1 |
| 20260504021735 | 15 | 319 | 0.0 | 0.0 | 0.00 | 0.00 | 0.00 | 64 | 1005.1 |
| 20260504021232 | 15 | 312 | 0.0 | 0.0 | 0.00 | 0.00 | 0.00 | 64 | 1005.2 |
| 20260504020729 | 15 | 299 | 0.0 | 0.0 | 0.00 | 0.00 | 0.00 | 64 | 1004.9 |
| 20260504020225 | 15 | 305 | 0.0 | 0.0 | 0.00 | 0.00 | 0.00 | 64 | 1005.0 |
| 20260504015722 | 15 | 15 | 0.0 | 0.0 | 0.00 | 0.00 | 0.00 | 64 | 1005.1 |
| 20260504015218 | 15 | 11 | 0.0 | 0.0 | 0.00 | 0.00 | 0.00 | 63 | 1005.0 |
| 20260504014714 | 15 | 358 | 0.0 | 0.0 | 0.00 | 0.00 | 0.00 | 65 | 1004.9 |
| 20260504014211 | 15 | 10 | 0.0 | 0.0 | 0.00 | 0.00 | 0.00 | 64 | 1004.9 |
| 20260504013709 | 15 | 323 | 0.0 | 0.0 | 0.00 | 0.00 | 0.00 | 63 | 1004.8 |
| 20260504013206 | 15 | 333 | 0.0 | 0.0 | 0.00 | 0.00 | 0.00 | 63 | 1004.9 |
| 20260504012702 | 15 | 346 | 0.0 | 3.2 | 0.00 | 0.00 | 0.00 | 61 | 1004.7 |
| 20260504012200 | 16 | 336 | 0.0 | 0.0 | 0.00 | 0.00 | 0.00 | 62 | 1004.5 |
| 20260504011657 | 16 | 338 | 0.0 | 0.0 | 0.00 | 0.00 | 0.00 | 60 | 1004.5 |
| 20260504011153 | 17 | 323 | 0.0 | 0.0 | 0.00 | 0.00 | 0.00 | 57 | 1004.6 |
| 20260504010649 | 17 | 350 | 0.0 | 3.2 | 0.00 | 0.00 | 0.00 | 56 | 1004.5 |
| 20260504010145 | 17 | 341 | 0.0 | 0.0 | 0.00 | 0.00 | 0.00 | 54 | 1004.6 |
| 20260504005642 | 17 | 323 | 0.0 | 3.2 | 0.00 | 0.00 | 0.00 | 54 | 1004.4 |
| 20260504005139 | 18 | 306 | 0.0 | 3.2 | 0.00 | 0.00 | 0.00 | 54 | 1004.4 |
| 20260504004637 | 18 | 326 | 0.0 | 3.2 | 0.00 | 0.00 | 0.00 | 51 | 1004.6 |
| 20260504004134 | 19 | 119 | 1.6 | 4.8 | 0.00 | 0.00 | 0.00 | 50 | 1004.5 |
| 20260504003630 | 19 | 296 | 0.0 | 3.2 | 0.00 | 0.00 | 0.00 | 48 | 1004.5 |
| 20260504003127 | 20 | 338 | 3.2 | 4.8 | 0.00 | 0.00 | 0.00 | 48 | 1004.5 |
| 20260504002624 | 20 | 331 | 3.2 | 8.0 | 0.00 | 0.00 | 0.00 | 48 | 1004.3 |
| 20260504002121 | 20 | 353 | 0.0 | 8.0 | 0.00 | 0.00 | 0.00 | 47 | 1004.5 |
| 20260504001619 | 20 | 355 | 6.4 | 16.1 | 0.00 | 0.00 | 0.00 | 47 | 1004.5 |
| 20260504001114 | 20 | 22 | 1.6 | 4.8 | 0.00 | 0.00 | 0.00 | 47 | 1004.5 |
| 20260504000612 | 20 | 254 | 3.2 | 11.3 | 0.00 | 0.00 | 0.00 | 46 | 1004.5 |
| 20260504000110 | 20 | 233 | 8.0 | 8.0 | 0.00 | 0.00 | 0.00 | 46 | 1004.5 |
| 20260503235608 | 20 | 193 | 4.8 | 11.3 | 0.00 | 0.00 | 0.00 | 45 | 1004.5 |
| 20260503235104 | 20 | 339 | 6.4 | 12.9 | 0.00 | 0.00 | 0.00 | 45 | 1004.4 |
| 20260503234602 | 20 | 354 | 11.3 | 12.9 | 0.00 | 0.00 | 0.00 | 45 | 1004.5 |
| 20260503234100 | 20 | 337 | 3.2 | 16.1 | 0.00 | 0.00 | 0.00 | 44 | 1004.3 |
| 20260503233556 | 21 | 116 | 3.2 | 12.9 | 0.00 | 0.00 | 0.00 | 44 | 1004.5 |
| 20260503233052 | 21 | 23 | 8.0 | 12.9 | 0.00 | 0.00 | 0.00 | 44 | 1004.5 |
| 20260503232549 | 21 | 180 | 4.8 | 19.3 | 0.00 | 0.00 | 0.00 | 44 | 1004.5 |
| 20260503232047 | 21 | 212 | 8.0 | 12.9 | 0.00 | 0.00 | 0.00 | 43 | 1004.6 |
| 20260503231544 | 21 | 193 | 8.0 | 19.3 | 0.00 | 0.00 | 0.00 | 43 | 1004.6 |
| 20260503231041 | 21 | 180 | 4.8 | 11.3 | 0.00 | 0.00 | 0.00 | 42 | 1004.7 |
| 20260503230537 | 21 | 310 | 3.2 | 11.3 | 0.00 | 0.00 | 0.00 | 43 | 1004.6 |
| 20260503230035 | 21 | 331 | 4.8 | 8.0 | 0.00 | 0.00 | 0.00 | 42 | 1004.7 |
| 20260503225532 | 21 | 194 | 8.0 | 12.9 | 0.00 | 0.00 | 0.00 | 43 | 1004.7 |
| 20260503225027 | 21 | 12 | 3.2 | 12.9 | 0.00 | 0.00 | 0.00 | 43 | 1004.8 |
| 20260503224525 | 21 | 293 | 6.4 | 19.3 | 0.00 | 0.00 | 0.00 | 42 | 1004.9 |
| 20260503224022 | 21 | 337 | 4.8 | 16.1 | 0.00 | 0.00 | 0.00 | 44 | 1005.0 |
| 20260503223520 | 21 | 244 | 4.8 | 12.9 | 0.00 | 0.00 | 0.00 | 44 | 1005.0 |
| 20260503223015 | 21 | 83 | 4.8 | 12.9 | 0.00 | 0.00 | 0.00 | 44 | 1005.0 |
| 20260503222514 | 21 | 295 | 1.6 | 11.3 | 0.00 | 0.00 | 0.00 | 43 | 1005.0 |
| 20260503222012 | 21 | 231 | 11.3 | 19.3 | 0.00 | 0.00 | 0.00 | 42 | 1005.2 |
| 20260503221510 | 21 | 22 | 9.7 | 27.4 | 0.00 | 0.00 | 0.00 | 43 | 1005.4 |
| 20260503221007 | 20 | 304 | 6.4 | 19.3 | 0.00 | 0.00 | 0.00 | 42 | 1005.4 |
| 20260503220503 | 21 | 270 | 11.3 | 19.3 | 0.00 | 0.00 | 0.00 | 42 | 1005.2 |
| 20260503215959 | 21 | 279 | 1.6 | 11.3 | 0.00 | 0.00 | 0.00 | 42 | 1005.4 |
| 20260503215456 | 21 | 255 | 6.4 | 16.1 | 0.00 | 0.00 | 0.00 | 43 | 1005.5 |
| 20260503214954 | 20 | 194 | 4.8 | 11.3 | 0.00 | 0.00 | 0.00 | 43 | 1005.4 |
| 20260503214452 | 20 | 5 | 8.0 | 19.3 | 0.00 | 0.00 | 0.00 | 43 | 1005.7 |
| 20260503213949 | 20 | 328 | 9.7 | 20.9 | 0.00 | 0.00 | 0.00 | 44 | 1005.9 |
| 20260503213447 | 20 | 260 | 8.0 | 19.3 | 0.00 | 0.00 | 0.00 | 43 | 1005.8 |
| 20260503212943 | 20 | 340 | 3.2 | 8.0 | 0.00 | 0.00 | 0.00 | 43 | 1005.8 |
| 20260503212441 | 19 | 316 | 8.0 | 16.1 | 0.00 | 0.00 | 0.00 | 43 | 1005.8 |
| 20260503211938 | 20 | 80 | 6.4 | 29.0 | 0.00 | 0.00 | 0.00 | 44 | 1005.9 |
| 20260503211435 | 20 | 187 | 8.0 | 12.9 | 0.00 | 0.00 | 0.00 | 40 | 1005.9 |
| 20260503210930 | 20 | 255 | 4.8 | 19.3 | 0.00 | 0.00 | 0.00 | 41 | 1006.1 |
| 20260503210427 | 20 | 30 | 6.4 | 19.3 | 0.00 | 0.00 | 0.00 | 40 | 1006.1 |
| 20260503205922 | 20 | 181 | 3.2 | 20.9 | 0.00 | 0.00 | 0.00 | 41 | 1006.4 |
| 20260503205420 | 20 | 310 | 4.8 | 16.1 | 0.00 | 0.00 | 0.00 | 43 | 1006.3 |
| 20260503204915 | 20 | 204 | 6.4 | 16.1 | 0.00 | 0.00 | 0.00 | 42 | 1006.2 |
| 20260503204413 | 19 | 205 | 9.7 | 24.1 | 0.00 | 0.00 | 0.00 | 42 | 1006.5 |
| 20260503203910 | 19 | 266 | 14.5 | 20.9 | 0.00 | 0.00 | 0.00 | 44 | 1006.7 |
| 20260503203407 | 19 | 253 | 9.7 | 20.9 | 0.00 | 0.00 | 0.00 | 45 | 1007.0 |
| 20260503202904 | 19 | 273 | 4.8 | 19.3 | 0.00 | 0.00 | 0.00 | 46 | 1007.1 |
| 20260503202402 | 19 | 271 | 11.3 | 12.9 | 0.00 | 0.00 | 0.00 | 46 | 1007.1 |
| 20260503201900 | 19 | 296 | 16.1 | 27.4 | 0.00 | 0.00 | 0.00 | 46 | 1007.2 |
| 20260503201357 | 19 | 262 | 12.9 | 20.9 | 0.00 | 0.00 | 0.00 | 45 | 1007.4 |
| 20260503200855 | 18 | 301 | 6.4 | 16.1 | 0.00 | 0.00 | 0.00 | 48 | 1007.3 |
| 20260503200350 | 18 | 230 | 14.5 | 24.1 | 0.00 | 0.00 | 0.00 | 49 | 1007.7 |
| 20260503195848 | 18 | 183 | 4.8 | 16.1 | 0.00 | 0.00 | 0.00 | 51 | 1007.7 |
| 20260503195344 | 18 | 318 | 6.4 | 24.1 | 0.00 | 0.00 | 0.00 | 47 | 1007.8 |
| 20260503194841 | 19 | 227 | 8.0 | 20.9 | 0.00 | 0.00 | 0.00 | 48 | 1007.8 |
| 20260503194337 | 18 | 274 | 4.8 | 20.9 | 0.00 | 0.00 | 0.00 | 51 | 1007.6 |
| 20260503193834 | 18 | 310 | 8.0 | 12.9 | 0.00 | 0.00 | 0.00 | 51 | 1008.0 |
| 20260503193330 | 17 | 213 | 4.8 | 24.1 | 0.00 | 0.00 | 0.00 | 51 | 1007.8 |
| 20260503192826 | 17 | 251 | 4.8 | 19.3 | 0.00 | 0.00 | 0.00 | 51 | 1007.9 |
| 20260503192321 | 17 | 293 | 6.4 | 19.3 | 0.00 | 0.00 | 0.00 | 50 | 1008.0 |
| 20260503191818 | 17 | 312 | 6.4 | 16.1 | 0.00 | 0.00 | 0.00 | 49 | 1008.2 |
| 20260503191315 | 18 | 229 | 4.8 | 19.3 | 0.00 | 0.00 | 0.00 | 52 | 1008.1 |
| 20260503190812 | 17 | 188 | 8.0 | 12.9 | 0.00 | 0.00 | 0.00 | 51 | 1008.3 |
| 20260503190309 | 17 | 125 | 11.3 | 27.4 | 0.00 | 0.00 | 0.00 | 51 | 1008.3 |
| 20260503185806 | 16 | 66 | 8.0 | 12.9 | 0.00 | 0.00 | 0.00 | 54 | 1008.4 |
| 20260503185301 | 16 | 186 | 6.4 | 16.1 | 0.00 | 0.00 | 0.00 | 55 | 1008.2 |
| 20260503184801 | 16 | 251 | 6.4 | 20.9 | 0.00 | 0.00 | 0.00 | 55 | 1008.4 |
| 20260503184258 | 15 | 93 | 4.8 | 19.3 | 0.00 | 0.00 | 0.00 | 56 | 1008.3 |
| 20260503183754 | 16 | 301 | 4.8 | 16.1 | 0.00 | 0.00 | 0.00 | 53 | 1008.9 |
| 20260503183252 | 16 | 306 | 8.0 | 12.9 | 0.00 | 0.00 | 0.00 | 55 | 1008.4 |
| 20260503182749 | 15 | 350 | 17.7 | 40.2 | 0.00 | 0.00 | 0.00 | 57 | 1008.5 |
| 20260503182248 | 15 | 303 | 4.8 | 19.3 | 0.00 | 0.00 | 0.00 | 56 | 1008.9 |
| 20260503181744 | 15 | 244 | 6.4 | 12.9 | 0.00 | 0.00 | 0.00 | 58 | 1009.1 |
| 20260503181241 | 15 | 342 | 9.7 | 20.9 | 0.00 | 0.00 | 0.00 | 57 | 1009.1 |
| 20260503180737 | 15 | 269 | 6.4 | 16.1 | 0.00 | 0.00 | 0.00 | 58 | 1009.4 |
| 20260503180236 | 15 | 310 | 9.7 | 24.1 | 0.00 | 0.00 | 0.00 | 59 | 1009.5 |
| 20260503175732 | 14 | 315 | 9.7 | 27.4 | 0.00 | 0.00 | 0.00 | 60 | 1009.6 |
| 20260503175230 | 15 | 244 | 11.3 | 27.4 | 0.00 | 0.00 | 0.00 | 56 | 1009.8 |
| 20260503174726 | 15 | 293 | 9.7 | 16.1 | 0.00 | 0.00 | 0.00 | 60 | 1010.0 |
| 20260503174224 | 15 | 200 | 3.2 | 16.1 | 0.00 | 0.00 | 0.00 | 61 | 1010.0 |
| 20260503173724 | 14 | 290 | 9.7 | 24.1 | 0.00 | 0.00 | 0.00 | 61 | 1010.0 |
| 20260503173221 | 14 | 321 | 11.3 | 20.9 | 0.00 | 0.00 | 0.00 | 61 | 1010.5 |
| 20260503172718 | 13 | 317 | 9.7 | 19.3 | 0.00 | 0.00 | 0.00 | 65 | 1010.8 |
| 20260503172215 | 13 | 176 | 9.7 | 27.4 | 0.00 | 0.00 | 0.00 | 63 | 1010.9 |
| 20260503171711 | 12 | 201 | 3.2 | 12.9 | 0.00 | 0.00 | 0.00 | 66 | 1011.0 |
| 20260503171208 | 12 | 143 | 9.7 | 20.9 | 0.00 | 0.00 | 0.00 | 67 | 1010.9 |
| 20260503170705 | 11 | 8 | 4.8 | 19.3 | 0.00 | 0.00 | 0.00 | 69 | 1010.9 |
| 20260503170202 | 11 | 274 | 6.4 | 19.3 | 0.00 | 0.00 | 0.00 | 71 | 1011.1 |
| 20260503160124 | 12 | 317 | 19.3 | 32.2 | 0.00 | 0.00 | 0.00 | 64 | 1012.2 |
| 20260503150554 | 13 | 292 | 8.0 | 16.1 | 0.00 | 0.00 | 0.00 | 59 | 1012.1 |
| 20260503130943 | 11 | 19 | 4.8 | 16.1 | 0.00 | 0.00 | 0.00 | 56 | 1013.2 |
| 20260503130441 | 11 | 359 | 8.0 | 24.1 | 0.00 | 0.00 | 0.00 | 55 | 1013.3 |
| 20260503110331 | 9 | 170 | 3.2 | 11.3 | 0.00 | 0.00 | 0.00 | 59 | 1013.0 |
| 20260503100258 | 8 | 280 | 1.6 | 8.0 | 0.00 | 0.00 | 0.00 | 58 | 1013.1 |
| 20260503090217 | 8 | 233 | 3.2 | 8.0 | 0.00 | 0.00 | 0.00 | 55 | 1013.6 |
| 20260503081144 | 8 | 329 | 4.8 | 8.0 | 0.00 | 0.00 | 0.00 | 56 | 1013.7 |
| 20260503080640 | 8 | 256 | 1.6 | 4.8 | 0.00 | 0.00 | 0.00 | 58 | 1013.5 |
| 20260503080137 | 8 | 19 | 3.2 | 8.0 | 0.00 | 0.00 | 0.00 | 57 | 1013.9 |
| 20260503072614 | 8 | 264 | 3.2 | 11.3 | 0.00 | 0.00 | 0.00 | 59 | 1013.8 |
| 20260503072111 | 8 | 342 | 3.2 | 8.0 | 0.00 | 0.00 | 0.00 | 57 | 1013.7 |
| 20260503071608 | 8 | 152 | 3.2 | 4.8 | 0.00 | 0.00 | 0.00 | 57 | 1013.8 |
| 20260503071104 | 8 | 36 | 0.0 | 4.8 | 0.00 | 0.00 | 0.00 | 56 | 1013.9 |
| 20260503070601 | 8 | 34 | 1.6 | 8.0 | 0.00 | 0.00 | 0.00 | 56 | 1014.0 |